Tracking 27122 objects as of 26-Mar-2023
HD Live streaming from Space Station
objects crossing your sky now

STARLINK-3645

Track STARLINK-3645 now!
10-day predictions
STARLINK-3645 is classified as:


NORAD ID: 51986
Int'l Code: 2022-025AG
Perigee: 546.4 km
Apogee: 548.1 km
Inclination: 53.2 °
Period: 95.4 minutes
Semi major axis: 6918 km
RCS: Unknown
Launch date: March 9, 2022
Source: United States (US)
Launch site: AIR FORCE EASTERN TEST RANGE (AFETR)
Your satellite tracking list
Your tracking list is empty




NASA's NSSDC Master Catalog

Two Line Element Set (TLE):
1 51986U 22025AG  23084.85530704  .00016900  00000-0  10809-2 0  9995
2 51986  53.2150 206.6953 0001230  92.5168 267.5965 15.08719290 58044
Source of the keplerian elements: AFSPC